FW7738 Weather Reports


Display with metric or nautical units.
time (UTC)temp
F
wind
direction
speed
MPH
gust
MPH
rain 1hr
in
rain 24hr
in
rain mn
in
humidity
%
barometer
mb
20260502190026 64 102 6.0 11.0 0.00 0.00 0.00 87 1015.5
20260502185022 65 95 5.0 11.0 0.00 0.00 0.00 87 1015.3
20260502184017 65 102 7.0 13.0 0.00 0.00 0.00 86 1015.7
20260502183032 65 100 4.0 10.0 0.00 0.00 0.00 86 1015.9
20260502182027 65 85 5.0 10.0 0.00 0.00 0.00 86 1016.0
20260502181023 65 90 3.0 7.0 0.00 0.00 0.00 86 1016.1
20260502164021 66 113 7.0 13.0 0.00 0.00 0.00 82 1016.5
20260502163016 66 126 8.0 13.0 0.00 0.00 0.00 82 1016.5
20260502162031 66 107 7.0 15.0 0.00 0.00 0.00 82 1016.5
20260502161026 67 119 10.0 16.0 0.00 0.00 0.00 82 1016.4
20260502152043 68 123 5.0 11.0 0.00 0.00 0.00 78 1016.5
20260502151018 68 127 8.0 13.0 0.00 0.00 0.00 78 1016.8
20260502123023 67 137 11.0 18.0 0.00 0.00 0.00 83 1018.2
20260502122019 67 129 8.0 13.0 0.00 0.00 0.00 83 1018.6
20260502121034 67 124 7.0 13.0 0.00 0.00 0.00 81 1018.8
20260502115045 68 101 5.0 10.0 0.00 0.00 0.00 81 1018.6
20260502114019 68 117 7.0 13.0 0.00 0.00 0.00 80 1018.8
20260502113035 68 122 7.0 14.0 0.00 0.00 0.00 79 1018.9
20260502112031 68 140 9.0 14.0 0.00 0.00 0.00 79 1018.8
20260502110532 68 138 8.0 14.0 0.00 0.00 0.00 80 1019.0
20260502105528 68 113 9.0 14.0 0.00 0.00 0.00 80 1019.1
20260502104522 68 98 7.0 15.0 0.00 0.00 0.00 79 1019.1
20260502103518 69 123 7.0 15.0 0.00 0.00 0.00 76 1019.2
20260502102553 69 106 4.0 10.0 0.00 0.00 0.00 75 1019.2
20260502101529 69 119 3.0 8.0 0.00 0.00 0.00 75 1019.3
20260502100544 69 115 5.0 10.0 0.00 0.00 0.00 75 1019.2
20260502091522 68 101 4.0 8.0 0.00 0.00 0.00 77 1019.4
20260502090517 67 83 2.0 6.0 0.00 0.00 0.00 80 1019.6
20260502071526 65 53 2.0 6.0 0.00 0.00 0.00 83 1019.6
20260502070521 65 65 2.0 4.0 0.00 0.00 0.00 84 1019.6
20260502065536 65 54 2.0 6.0 0.00 0.00 0.00 85 1019.4
20260502064532 64 50 2.0 4.0 0.00 0.00 0.00 87 1019.5
20260502063527 64 40 0.0 2.0 0.00 0.00 0.00 88 1019.7
20260502062522 64 0.0 0.0 0.00 0.00 0.00 89 1019.9
20260502060533 63 44 0.0 1.0 0.00 0.00 0.00 91 1019.6
20260502055529 63 0.0 0.0 0.00 0.00 0.00 91 1019.5
20260502054524 63 0.0 0.0 0.00 0.00 0.00 92 1019.5
20260502053519 63 0.0 0.0 0.00 0.00 0.00 92 1019.3
20260502052515 63 0.0 0.0 0.00 0.00 0.00 92 1019.4
20260502051531 63 0.0 0.0 0.00 0.00 0.00 92 1019.2
20260502050526 63 0.0 0.0 0.00 0.01 0.00 92 1019.5
20260502045522 63 0.0 0.0 0.00 0.01 0.00 92 1019.3
20260502044517 63 19 0.0 1.0 0.00 0.02 0.00 92 1019.4
20260502043533 63 0.0 0.0 0.00 0.02 0.00 92 1019.3
20260502042528 63 50 0.0 2.0 0.00 0.02 0.00 93 1019.4
20260502041524 63 66 0.0 1.0 0.00 0.02 0.00 93 1019.4
20260502040519 63 0.0 0.0 0.00 0.02 0.00 93 1019.5
20260502035534 63 26 0.0 1.0 0.00 0.02 0.00 93 1019.6
20260502034530 63 22 0.0 1.0 0.00 0.02 0.00 93 1019.8
20260502033545 63 26 0.0 1.0 0.00 0.02 0.00 93 1019.8
20260502032521 63 36 0.0 1.0 0.00 0.02 0.00 93 1019.9
20260502031516 63 51 1.0 2.0 0.00 0.02 0.00 93 1019.7
20260502030532 63 48 0.0 1.0 0.00 0.02 0.00 93 1019.8
20260502025527 63 57 1.0 3.0 0.00 0.02 0.00 93 1019.6
20260502024524 63 44 1.0 2.0 0.00 0.02 0.00 93 1019.5
20260502023538 63 61 1.0 3.0 0.00 0.02 0.00 93 1019.6
20260502022533 63 64 0.0 2.0 0.00 0.02 0.00 93 1019.7
20260502021529 63 54 1.0 6.0 0.00 0.02 0.00 93 1019.7
20260502020524 64 54 1.0 3.0 0.00 0.02 0.00 93 1019.8
20260502015519 64 41 0.0 2.0 0.00 0.02 0.00 93 1019.9
20260502014515 64 62 0.0 2.0 0.00 0.02 0.00 93 1019.9
20260502013531 64 61 1.0 6.0 0.00 0.02 0.00 93 1020.0
20260502012526 64 53 1.0 3.0 0.00 0.02 0.00 93 1020.0
20260502011522 64 54 1.0 3.0 0.00 0.02 0.00 93 1020.1
20260502010518 64 64 1.0 4.0 0.00 0.02 0.00 93 1020.3
20260502005533 64 57 1.0 3.0 0.00 0.02 0.00 93 1020.4
20260502004548 64 43 1.0 3.0 0.00 0.02 0.00 92 1020.3
20260502003523 64 53 1.0 3.0 0.00 0.02 0.00 92 1020.4
20260502002519 64 57 1.0 2.0 0.00 0.02 0.00 92 1020.5
20260502001555 64 57 0.0 2.0 0.00 0.02 0.00 92 1020.8
20260502000529 64 68 0.0 2.0 0.00 0.02 0.00 92 1020.9
20260501235524 64 43 0.0 1.0 0.00 0.02 0.02 91 1021.0
20260501234520 64 62 1.0 2.0 0.00 0.02 0.02 91 1021.0
20260501233516 64 69 0.0 2.0 0.00 0.02 0.02 91 1021.2
20260501232531 64 65 1.0 3.0 0.00 0.02 0.02 91 1021.2
20260501231527 64 62 1.0 3.0 0.00 0.02 0.02 91 1021.3
20260501230522 64 55 0.0 2.0 0.00 0.02 0.02 91 1021.1
20260501225517 64 68 1.0 6.0 0.00 0.02 0.02 91 1021.0
20260501224533 64 55 1.0 4.0 0.00 0.02 0.02 91 1021.2
20260501223529 64 63 1.0 4.0 0.00 0.02 0.02 91 1021.1
20260501222524 64 63 1.0 3.0 0.00 0.02 0.02 90 1021.1
20260501221539 64 61 1.0 4.0 0.00 0.02 0.02 90 1021.1
20260501220534 64 77 2.0 3.0 0.00 0.02 0.02 90 1021.2
20260501215529 64 80 1.0 2.0 0.00 0.02 0.02 90 1021.4
20260501214524 64 73 0.0 1.0 0.00 0.02 0.02 90 1021.5
20260501213519 64 46 0.0 1.0 0.00 0.02 0.02 90 1021.5
20260501212535 64 80 1.0 3.0 0.00 0.02 0.02 89 1021.5
20260501211551 64 54 0.0 1.0 0.00 0.02 0.02 89 1021.4
20260501210526 64 74 1.0 3.0 0.00 0.02 0.02 89 1021.6
20260501205541 64 87 1.0 2.0 0.00 0.02 0.02 89 1021.5
20260501204517 64 66 0.0 1.0 0.00 0.02 0.02 89 1021.7
20260501203532 64 78 0.0 1.0 0.00 0.02 0.02 89 1021.5
20260501202527 64 72 0.0 1.0 0.00 0.02 0.02 89 1021.4
20260501201522 64 84 1.0 2.0 0.00 0.02 0.02 88 1021.3
20260501200518 64 72 0.0 1.0 0.00 0.02 0.02 88 1021.2
20260501195533 64 60 1.0 4.0 0.00 0.02 0.02 89 1021.0
20260501194528 64 69 1.0 2.0 0.00 0.02 0.02 89 1020.9
20260501193523 64 55 2.0 4.0 0.00 0.02 0.02 89 1020.7
20260501192519 64 69 2.0 6.0 0.00 0.02 0.02 88 1020.6
20260501191535 64 65 2.0 6.0 0.00 0.02 0.02 88 1020.6